Dewpoint
68 71 72 72 71 70 70 70 70 70 70 70 71 70 70 71 72 72 72 73 73 73 72 71 71 70 70 70 70 70 70 71 71 71 71 71 70 70 70 70 70 70 70
69 71 71 72 71 70 70 70 70 70 70 71 71 71 70 71 72 72 72 72 73 72 71 71 71 71 70 70 69 69 69 70 70 70 71 71 70 69 69 68 70 70 70
69 70 71 71 72 71 70 70 70 70 71 71 71 71 70 70 71 71 72 72 72 72 71 71 71 72 72 70 68 67 68 69 70 70 70 70 69 69 68 69 70 71 70
68 69 70 71 71 71 70 70 70 70 71 71 71 71 71 70 70 71 71 71 72 72 71 71 71 72 71 68 67 66 67 68 69 70 69 69 68 69 68 70 70 70 70
68 69 70 70 70 71 71 70 70 70 70 70 71 71 71 70 70 71 70 71 72 72 72 71 71 71 69 67 66 66 66 67 68 68 68 68 67 68 69 70 71 71 70
68 68 69 69 69 70 71 71 71 70 69 70 71 71 71 71 70 70 70 70 71 73 72 72 71 70 68 67 66 65 65 66 66 66 67 67 68 68 69 70 70 70 70
68 69 69 69 69 69 69 70 71 71 70 70 70 71 71 71 70 70 70 70 71 71 72 72 71 70 68 66 66 66 65 66 66 65 65 66 67 68 68 68 69 69 70
60 60 61 63 64 69 69 68 69 69 70 71 71 71 71 71 71 70 70 70 70 70 71 72 71 71 70 67 67 66 66 66 65 65 64 64 67 67 69 68 68 69 69
53 54 54 56 58 62 66 68 69 68 68 69 70 70 71 71 71 71 70 70 70 70 71 71 71 71 71 70 69 67 67 66 66 65 63 62 64 67 67 68 68 67 69
50 51 52 53 56 60 61 64 68 69 69 68 69 70 70 71 71 71 70 70 70 70 70 71 71 71 71 71 71 70 68 67 66 65 64 63 62 68 67 67 68 67 68
48 48 49 51 54 57 57 61 63 65 67 69 69 69 69 70 71 71 71 70 70 70 69 69 70 70 69 70 70 70 70 68 67 66 64 63 62 67 67 68 67 68 67
46 46 48 49 51 55 56 58 61 63 64 64 64 68 68 68 68 69 70 70 70 70 69 69 69 69 69 69 70 70 69 69 68 67 65 63 63 65 67 67 67 68 68
45 46 47 47 49 52 54 56 58 60 61 60 60 62 65 68 68 69 69 69 68 69 69 69 69 69 69 69 68 69 69 69 68 67 66 64 64 65 67 67 66 68 68
43 44 45 45 47 50 53 54 55 57 57 57 58 58 59 60 61 62 65 66 65 66 66 67 67 68 68 68 67 66 68 69 68 67 66 64 63 65 67 67 67 66 67
42 43 43 44 44 48 51 50 52 54 55 55 56 56 57 56 57 59 61 62 63 62 62 62 63 64 64 65 66 67 66 66 67 66 66 66 64 65 66 65 66 65 67
42 42 43 43 43 44 49 50 49 51 51 52 52 54 54 54 54 55 58 59 57 59 60 61 61 62 63 64 64 64 65 66 66 67 67 65 64 64 64 64 65 64 64
42 42 42 43 43 43 46 48 49 50 49 49 50 50 50 50 50 51 51 51 52 54 53 54 54 55 56 58 60 63 64 64 65 65 65 65 64 64 60 62 61 63 65
41 41 42 42 43 43 42 47 47 45 46 48 48 48 47 47 47 48 48 47 49 50 50 50 50 50 51 53 53 55 58 62 63 64 64 64 64 64 62 61 59 65 65
41 41 41 41 41 41 42 43 46 44 44 44 45 46 45 45 44 45 45 45 46 47 47 47 48 48 48 50 48 50 53 55 60 63 63 63 62 62 62 65 65 64 63
40 40 40 40 40 40 41 42 42 44 43 44 43 44 44 43 42 43 43 43 44 44 44 44 44 45 46 46 46 49 52 51 55 60 61 61 61 61 64 63 62 58 58
39 39 39 38 39 39 39 40 41 41 43 41 42 42 43 40 40 40 41 41 41 42 42 42 43 42 44 44 47 44 48 52 54 58 61 62 62 62 62 62 62 61 61
38 39 38 38 38 38 38 39 39 41 39 38 39 39 39 38 38 37 39 39 39 40 40 40 41 41 42 42 42 44 46 46 48 48 52 55 54 59 62 62 63 63 62
38 38 37 37 37 37 37 37 37 37 37 35 36 36 38 37 36 36 36 38 38 39 38 38 39 39 39 41 41 43 42 41 42 46 46 49 50 50 54 54 56 60 61
37 38 37 36 36 36 36 35 35 35 35 35 35 34 35 35 35 35 36 37 36 37 37 37 37 38 39 39 40 42 43 44 41 41 44 45 45 47 48 49 52 51 53
37 37 36 35 35 34 34 34 34 33 33 34 33 33 33 34 34 34 35 35 36 36 36 37 37 38 40 40 40 41 42 43 42 43 40 43 42 45 45 48 47 51 49
35 35 35 34 34 34 33 33 33 33 32 32 33 32 33 33 33 34 34 35 35 35 36 37 37 36 37 38 38 39 39 40 41 41 40 40 39 41 41 43 46 48 51
Wind_Speed
5 7 8 8 10 11 12 12 13 14 14 15 15 15 16 15 16 16 16 15 14 14 13 11 10 8 7 8 8 8 8 9 10 10 11 12 14 15 16 13 14 14 15
13 8 10 9 10 11 11 11 11 12 12 12 13 14 13 14 13 14 14 13 12 12 12 11 8 6 6 6 7 8 8 9 8 9 11 12 12 14 13 10 13 14 15
13 11 11 10 9 9 10 10 10 10 11 11 11 11 12 12 12 11 10 10 10 9 9 7 6 5 7 6 5 5 7 8 7 7 9 9 10 11 10 13 15 14 15
15 11 11 11 9 9 10 11 10 10 10 10 9 10 10 9 9 10 9 9 8 7 6 5 5 5 5 5 4 4 5 6 5 6 7 9 9 11 12 17 16 15 15
11 9 10 11 10 9 9 10 9 10 10 11 10 10 10 10 10 10 9 8 7 7 6 6 6 6 6 6 5 4 3 4 5 5 7 5 6 11 15 18 17 16 15
11 10 10 9 9 8 7 7 6 7 8 8 9 9 10 10 11 10 10 10 10 8 9 8 7 7 8 7 7 6 5 4 5 7 8 9 9 12 17 19 17 17 16
14 12 10 9 6 6 6 5 5 4 5 6 7 8 8 9 11 12 12 12 12 12 10 9 9 9 9 9 9 9 9 6 6 8 9 10 13 16 18 18 19 18 17
22 20 20 21 22 15 12 2 5 5 5 5 6 7 8 8 9 10 11 12 12 13 13 13 13 13 12 12 11 12 12 11 6 8 10 10 8 19 20 20 21 20 18
22 22 20 19 20 20 25 20 9 4 7 8 9 10 10 11 12 13 13 13 13 13 14 14 15 15 15 15 15 14 15 15 11 8 10 10 14 21 22 23 22 23 21
20 18 18 17 18 17 18 23 19 15 13 11 8 11 12 12 13 14 14 15 15 16 17 17 17 17 18 18 17 17 17 15 14 10 11 14 15 20 24 25 23 24 23
19 20 17 17 17 16 15 17 17 17 20 14 10 12 10 7 9 12 14 15 16 17 19 19 20 21 20 20 19 18 16 11 14 14 10 14 18 18 24 25 26 24 26
19 20 20 19 20 16 15 14 13 14 14 14 15 10 9 9 10 10 11 15 18 19 19 20 20 20 18 11 11 14 12 12 14 14 11 14 18 21 27 27 26 24 24
13 18 19 18 17 16 14 12 12 10 11 12 16 15 14 8 9 9 8 8 8 10 11 10 10 12 13 13 14 14 14 16 14 14 16 18 19 23 25 28 29 26 25
20 18 17 18 17 16 12 13 12 11 11 12 12 16 14 11 12 11 10 10 10 13 12 9 8 8 11 12 14 16 14 14 13 13 13 19 18 20 25 29 29 31 27
20 18 19 18 17 14 13 14 13 12 12 11 12 15 13 14 13 12 10 8 11 11 13 13 10 9 9 9 10 12 11 12 12 9 5 5 8 10 23 31 32 33 31
16 17 15 17 17 15 13 14 15 14 13 13 14 15 16 13 13 12 12 11 12 12 12 12 14 14 13 12 10 6 7 9 12 12 11 3 7 10 14 22 27 35 32
14 14 16 13 15 15 12 13 13 12 14 15 13 16 17 17 15 13 12 15 15 11 12 12 15 14 13 13 12 10 7 7 8 9 7 8 8 14 16 36 26 36 38
16 16 15 15 15 15 14 9 12 14 14 14 13 14 16 17 17 14 13 15 15 13 12 11 12 13 12 12 14 14 13 11 11 12 9 12 17 19 27 44 35 30 6
16 16 16 17 17 17 15 11 9 13 15 14 13 13 16 16 17 14 14 14 14 13 14 13 11 10 11 11 14 14 15 14 14 10 10 14 18 13 14 13 19 12 12
18 16 15 14 16 15 13 10 12 13 14 14 14 14 15 15 17 14 13 15 14 14 15 15 14 11 10 14 15 15 15 15 15 12 8 11 10 9 13 15 12 9 11
16 16 15 15 13 13 10 6 8 10 8 13 14 17 16 17 16 16 14 14 15 14 14 15 12 16 8 15 9 12 12 8 5 5 3 4 8 9 14 15 13 11 10
15 13 14 14 14 13 11 5 4 2 10 9 11 14 15 15 17 15 15 13 14 12 13 14 15 13 7 13 7 7 7 6 9 8 4 8 11 9 5 11 12 14 14
14 12 14 14 15 15 14 11 9 6 6 10 12 12 12 13 15 15 14 12 13 12 12 13 13 14 10 10 13 4 4 4 14 6 7 7 10 10 11 11 12 10 11
13 14 15 15 14 14 14 14 14 13 10 10 9 10 11 12 13 13 12 12 12 10 11 11 12 11 10 11 9 8 5 4 4 10 5 11 14 13 14 16 12 15 13
15 16 15 16 15 14 14 13 12 12 10 8 8 11 12 11 13 14 14 12 12 10 11 11 11 10 9 9 9 6 9 10 11 9 15 8 11 9 15 14 17 14 16
15 16 15 16 14 13 13 12 11 11 9 11 11 10 9 10 11 14 14 12 12 12 12 11 10 10 10 9 9 9 8 5 6 5 6 18 20 10 16 16 13 12 13
Wind_Direction
149 153 134 132 122 121 119 117 115 111 106 103 102 101 103 107 114 118 122 125 127 126 129 133 133 135 129 122 119 112 108 108 109 116 123 126 129 130 128 129 127 130 129
143 146 118 124 126 124 122 118 115 116 115 113 113 115 114 116 118 122 126 127 126 127 131 134 136 145 143 133 133 127 119 111 121 133 135 133 134 136 131 132 136 135 136
138 132 113 107 114 126 128 128 129 128 125 122 122 122 124 124 127 127 129 129 129 129 134 136 141 157 166 155 141 128 123 126 145 149 140 143 146 152 157 146 144 144 146
136 129 119 117 121 128 137 139 142 142 139 135 135 132 134 134 138 141 145 146 148 148 150 152 148 149 167 171 169 159 137 139 173 174 163 165 168 168 175 156 154 153 152
101 108 117 121 120 127 136 141 152 155 155 152 154 154 156 157 158 162 164 171 173 179 182 183 179 171 179 190 204 207 179 159 201 208 221 206 207 188 162 161 159 159 158
91 108 123 119 116 111 118 135 151 164 168 169 170 171 173 176 176 180 184 187 192 195 196 205 203 197 198 212 224 232 222 190 220 238 226 219 217 198 172 165 165 166 168
70 53 49 50 71 114 124 128 139 164 185 187 186 191 192 197 195 193 197 202 203 205 210 215 217 214 214 220 235 248 253 223 215 250 258 240 233 203 186 180 171 174 175
65 54 41 34 23 12 351 321 162 163 175 185 197 205 209 218 222 216 213 218 222 222 219 220 223 223 222 225 234 249 264 267 237 243 260 272 232 205 193 192 180 179 180
55 50 40 28 18 17 30 5 314 271 191 186 193 202 209 216 222 224 220 221 226 234 236 233 233 233 233 229 233 244 256 267 273 250 262 271 274 225 205 196 191 182 183
54 50 39 32 23 17 24 20 27 12 340 316 262 211 207 217 228 231 229 229 229 229 233 238 239 240 239 240 238 239 247 260 274 268 255 260 267 224 208 201 199 186 184
42 39 34 30 27 22 25 20 24 21 20 349 305 297 284 264 242 241 239 237 237 234 236 239 242 248 244 240 242 245 249 252 262 267 255 253 261 239 214 205 203 194 187
40 36 30 26 21 21 24 16 15 24 24 23 15 343 289 270 263 270 268 259 254 250 246 246 248 250 256 250 244 245 238 236 246 257 258 255 251 250 224 209 205 205 197
52 45 32 25 20 24 22 17 17 20 28 23 24 20 19 8 3 2 350 338 314 285 267 274 273 263 250 237 245 235 230 229 231 243 251 253 246 251 236 212 206 207 204
51 41 33 26 21 19 25 28 22 26 27 29 23 27 35 35 23 26 22 27 28 14 1 349 332 300 283 274 270 253 230 229 229 235 251 261 267 254 255 225 210 207 209
53 40 30 25 21 17 36 34 33 32 34 27 32 34 35 30 23 7 12 36 35 13 5 353 346 345 336 304 288 279 254 233 240 245 269 2 11 327 288 259 226 213 209
65 50 36 31 22 24 31 47 45 39 33 31 31 27 30 29 24 13 1 9 34 27 16 9 5 2 347 339 330 317 285 265 244 235 231 183 329 336 342 317 287 230 219
74 61 44 33 29 32 33 39 51 54 47 44 38 34 29 28 22 24 24 12 4 17 29 22 9 8 2 348 341 327 313 283 260 244 225 227 268 253 274 271 285 308 217
84 65 48 39 31 29 36 51 54 58 57 50 46 41 34 35 27 29 21 17 0 7 20 23 19 357 353 342 330 319 313 291 269 256 226 227 221 217 221 237 243 248 316
92 82 57 39 32 24 18 38 61 65 63 57 50 47 39 38 27 29 28 13 6 10 16 1 12 12 338 341 322 299 290 287 273 265 239 228 222 215 216 235 244 240 236
90 80 70 52 36 25 17 32 49 69 57 50 49 47 47 39 36 32 24 21 16 16 21 3 354 356 342 344 318 301 290 273 269 257 247 246 243 250 215 215 212 213 201
90 82 80 63 45 38 24 15 38 56 50 46 44 41 50 39 31 32 27 19 16 17 16 5 348 354 358 349 339 333 312 312 297 279 266 263 260 242 220 214 221 248 257
99 93 87 73 57 46 41 15 21 60 61 54 47 47 44 42 35 28 22 15 15 12 12 7 6 354 348 351 343 304 326 326 354 316 30 51 33 357 289 249 247 251 255
110 104 104 88 69 54 44 36 32 44 47 34 37 34 44 46 40 31 22 12 19 15 9 359 1 359 344 332 333 291 325 314 338 313 330 21 30 12 18 9 339 311 280
112 110 104 92 81 66 58 56 59 56 54 34 36 37 35 35 36 29 21 17 16 12 8 357 353 344 340 333 334 340 308 294 307 310 310 324 6 356 1 343 347 335 324
127 124 112 100 86 77 67 63 61 63 57 44 34 34 34 32 30 23 21 12 11 9 1 353 346 341 353 343 348 333 320 310 267 262 289 302 340 355 329 353 330 323 327
122 121 113 102 89 83 73 67 71 77 67 53 40 40 28 34 23 22 19 16 13 13 8 357 10 8 3 354 351 341 330 317 318 306 294 305 308 319 331 309 306 332 329